Location: Jackson Park
(37.2862°N, 79.9123°W)
Time: 11:22:59
(UTC+00:00)

Tiros 1 - Visible Passes

Search period start: 15 May 2026 00:00
Search period end: 25 May 2026 00:00
Orbit: 618 x 648 km, 48.4° (Epoch: 14 May)

Date Brightness Start Highest point End Pass type
(mag) Time Alt. Az. Time Alt. Az. Time Alt. Az.
15 May 9.2 05:45:56 24° NNE 05:45:56 24° NNE 05:48:01 10° NE visible
15 May 9.4 07:23:15 11° NW 07:26:29 20° N 07:29:55 10° NE visible
15 May 9.2 09:05:40 10° NW 09:09:30 26° NNE 09:13:19 10° ENE visible
16 May 9.0 06:05:48 26° N 06:05:48 26° N 06:09:25 10° NE visible
16 May 9.5 07:45:06 10° NW 07:48:31 20° N 07:51:56 10° NE visible
16 May 8.6 09:27:04 10° NW 09:31:21 38° NNE 09:35:35 10° E visible
17 May 9.6 04:48:14 16° NE 04:48:14 16° NE 04:49:13 10° NE visible
17 May 9.4 06:25:33 17° NW 06:27:29 21° N 06:31:00 10° NE visible
17 May 9.3 08:06:48 10° NW 08:10:31 24° NNE 08:14:13 10° ENE visible
18 May 9.1 05:07:44 26° N 05:07:44 26° N 05:10:35 10° NE visible
18 May 9.6 06:46:06 10° NW 06:49:30 20° N 06:52:54 10° NE visible
18 May 8.8 08:28:15 10° NW 08:32:24 33° NNE 08:36:31 10° E visible
19 May 9.1 02:00:13 10° SSW 02:01:00 14° S 02:01:00 14° S visible
19 May 9.3 03:49:17 17° NE 03:49:17 17° NE 03:50:25 10° NE visible
19 May 9.4 05:26:28 17° NW 05:28:28 22° N 05:32:06 10° NE visible
19 May 9.4 07:07:54 10° NW 07:11:31 22° N 07:15:07 10° ENE visible
19 May 7.8 08:49:38 10° NW 08:54:08 55° NNE 08:58:35 10° ESE visible
20 May 7.0 02:20:54 10° SW 02:25:29 61° SE 02:30:04 10° ENE visible
20 May 8.7 04:03:22 10° W 04:07:35 33° NNW 04:11:47 10° NE visible
20 May 9.6 05:47:03 10° NW 05:50:28 20° N 05:53:54 10° NE visible
20 May 9.0 07:29:25 10° NW 07:33:26 29° NNE 07:37:27 10° E visible
20 May 7.0 09:11:06 10° WNW 09:15:41 77° SW 09:20:12 10° SE visible
21 May 8.3 01:01:48 10° S 01:05:25 22° SE 01:08:59 10° E visible
21 May 7.4 02:42:19 10° WSW 02:46:58 68° NNW 02:51:35 10° NE visible
21 May 9.3 04:25:41 10° WNW 04:29:28 24° NNW 04:33:13 10° NE visible
21 May 9.5 06:08:58 10° NW 06:12:30 21° N 06:16:01 10° ENE visible
21 May 8.1 07:50:48 10° NW 07:55:14 46° NNE 07:59:37 10° ESE visible
21 May 7.7 09:32:52 10° WNW 09:37:01 35° SW 09:41:09 10° SSE visible
22 May 7.3 01:22:10 10° SSW 01:26:40 48° SE 01:31:07 10° ENE visible
22 May 8.5 03:04:16 10° W 03:08:38 38° NNW 03:12:58 10° NE visible
22 May 9.6 04:47:59 10° NW 04:51:27 20° N 04:54:55 10° NE visible
22 May 9.1 06:30:34 10° NW 06:34:28 26° NNE 06:38:21 10° ENE visible
22 May 7.0 08:12:13 10° NW 08:16:49 86° NE 08:21:23 10° SE visible
23 May 7.2 01:43:24 10° WSW 01:48:05 83° NW 01:52:44 10° NE visible
23 May 9.2 03:26:32 10° WNW 03:30:28 26° NNW 03:34:23 10° NE visible
23 May 9.6 05:10:01 10° NW 05:13:29 21° N 05:16:57 10° NE visible
23 May 8.4 06:51:58 10° NW 06:56:18 39° NNE 07:00:35 10° E visible
23 May 7.3 08:33:52 10° WNW 08:38:14 45° SW 08:42:33 10° SSE visible
24 May 8.3 02:05:12 10° W 02:09:41 45° NNW 02:14:09 10° NE visible
24 May 9.5 03:48:51 10° WNW 03:52:26 21° N 03:55:59 10° NE visible
24 May 9.3 05:31:41 10° NW 05:35:28 24° NNE 05:39:14 10° ENE visible
24 May 7.2 07:13:22 10° NW 07:17:57 70° NNE 07:22:30 10° ESE visible
24 May 8.3 08:56:05 10° W 08:59:27 21° SW 09:02:49 10° S visible
